Location: Oberkirch
(48.5323°N, 8.0787°E)
Time: 03:54:43
(UTC+00:00)

Cosmos 1153 Rocket - Visible Passes

Search period start: 19 February 2026 00:00
Search period end: 01 March 2026 00:00
Orbit: 952 x 1006 km, 82.9° (Epoch: 18 February)

Date Brightness Start Highest point End Pass type
(mag) Time Alt. Az. Time Alt. Az. Time Alt. Az.
19 Feb 7.1 02:59:14 10° ESE 03:02:59 17° ENE 03:06:43 10° NE visible
19 Feb 4.5 04:41:14 10° S 04:47:33 90° W 04:53:50 10° N visible
19 Feb 7.3 17:20:44 10° NW 17:24:16 16° WNW 17:27:48 10° WSW visible
20 Feb 6.3 03:23:43 10° SE 03:28:58 29° E 03:34:11 10° NNE visible
20 Feb 4.6 05:07:58 10° SSW 05:14:06 54° WNW 05:20:13 10° N visible
21 Feb 5.4 03:49:09 10° SSE 03:55:09 49° E 04:01:07 10° NNE visible
21 Feb 5.2 05:35:17 10° SW 05:40:50 32° WNW 05:46:22 10° N visible
22 Feb 7.1 02:33:40 10° ESE 02:37:00 15° ENE 02:40:20 10° NE visible
22 Feb 4.5 04:15:12 10° S 04:21:29 84° E 04:27:44 10° N visible
23 Feb 6.4 02:57:55 10° SE 03:02:58 26° E 03:07:59 10° NNE visible
23 Feb 4.5 04:41:50 10° SSW 04:48:01 59° WNW 04:54:10 10° N visible
24 Feb 5.5 03:23:13 10° SSE 03:29:07 45° E 03:34:58 10° NNE visible
24 Feb 5.1 05:09:03 10° SW 05:14:43 35° WNW 05:20:21 10° N visible
25 Feb 7.1 02:08:11 10° ESE 02:11:02 14° ENE 02:13:53 10° NE visible
25 Feb 4.6 03:49:11 10° S 03:55:26 77° E 04:01:39 10° NNE visible
25 Feb 5.6 05:36:59 10° WSW 05:41:36 21° WNW 05:46:13 10° NNW visible
26 Feb 6.5 02:32:10 10° SE 02:36:58 24° E 02:41:45 10° NNE visible
26 Feb 4.4 04:16:03 12° SSW 04:21:54 64° WNW 04:28:05 10° N visible
27 Feb 5.6 02:58:47 17° SSE 03:03:04 41° E 03:08:49 10° NNE visible
27 Feb 5.0 04:43:36 13° SW 04:48:35 38° WNW 04:54:18 10° N visible
28 Feb 7.1 01:42:50 10° E 01:45:04 12° ENE 01:47:18 10° NE visible
28 Feb 4.6 03:26:01 29° S 03:29:21 71° E 03:35:32 10° NNE visible
28 Feb 5.6 05:10:49 11° WSW 05:15:27 23° WNW 05:20:14 10° NNW visible
